WZZ2AM EDDN-LIRF

Flight info

Callsign WZZ2AM
Flight time 1h 7m
Altitude 37000
Route BOLSI1G BOLSI DCT REDNI DCT ERNAS DCT OLETU Z106 MANAL M736 MIMVI DCT OLPIX DCT GIKEB DCT IPD DCT NIMUM DCT ROSUV DCT LAKOX DCT RITEB
Aircraft A320/M-SDE3FGHIRWY/LB1

Departure

Time 2026-02-18 13:31
Airport Nuremberg Airport (EDDN)

Arrival

Time 2026-02-18 14:38
Airport Rome–Fiumicino Leonardo da Vinci International Airport (LIRF)
Time Latitude Longitude Altitude Speed Heading
2026-02-18 12:53 49.49524 11.07724 1026 ft 0 kts 188°
2026-02-18 13:20 49.49525 11.07724 1026 ft 1 kts 188°
2026-02-18 13:20 49.49539 11.07727 1024 ft 3 kts 184°
2026-02-18 13:20 49.49559 11.07728 1024 ft 3 kts 172°
2026-02-18 13:20 49.49578 11.07721 1026 ft 3 kts 150°
2026-02-18 13:21 49.49593 11.07691 1026 ft 1 kts 98°
2026-02-18 13:21 49.49594 11.07689 1026 ft 0 kts 98°
2026-02-18 13:25 49.49593 11.07698 1023 ft 1 kts 97°
2026-02-18 13:25 49.49591 11.07724 1027 ft 4 kts 97°
2026-02-18 13:25 49.49602 11.07755 1022 ft 4 kts 27°
2026-02-18 13:26 49.49630 11.07765 1027 ft 5 kts 14°
2026-02-18 13:26 49.49649 11.07813 1028 ft 6 kts 79°
2026-02-18 13:26 49.49645 11.07884 1025 ft 8 kts 97°
2026-02-18 13:26 49.49637 11.07971 1028 ft 9 kts 98°
2026-02-18 13:27 49.49627 11.08070 1029 ft 10 kts 99°
2026-02-18 13:27 49.49616 11.08182 1029 ft 11 kts 98°
2026-02-18 13:27 49.49604 11.08307 1032 ft 12 kts 99°
2026-02-18 13:27 49.49615 11.08397 1033 ft 8 kts 76°
2026-02-18 13:28 49.49610 11.08487 1035 ft 9 kts 98°
2026-02-18 13:28 49.49601 11.08583 1036 ft 10 kts 98°
2026-02-18 13:28 49.49591 11.08687 1036 ft 11 kts 99°
2026-02-18 13:28 49.49579 11.08806 1037 ft 12 kts 99°
2026-02-18 13:29 49.49551 11.09089 1041 ft 14 kts 98°
2026-02-18 13:29 49.49536 11.09240 1043 ft 14 kts 98°
2026-02-18 13:29 49.49545 11.09389 1046 ft 14 kts 59°
2026-02-18 13:30 49.49601 11.09511 1050 ft 13 kts 54°
2026-02-18 13:30 49.49659 11.09565 1052 ft 9 kts
2026-02-18 13:30 49.49704 11.09468 1051 ft 18 kts 279°
2026-02-18 13:30 49.49755 11.08972 1043 ft 81 kts 278°
2026-02-18 13:31 49.49869 11.07808 1028 ft 136 kts 278°
2026-02-18 13:31 49.50030 11.06217 1366 ft 152 kts 278°
2026-02-18 13:31 49.50136 11.05145 1823 ft 154 kts 278°
2026-02-18 13:31 49.50296 11.03485 2398 ft 163 kts 278°
2026-02-18 13:32 49.50473 11.01647 2639 ft 185 kts 278°
2026-02-18 13:32 49.50674 10.99565 2894 ft 209 kts 278°
2026-02-18 13:32 49.50903 10.97224 3261 ft 234 kts 278°
2026-02-18 13:32 49.51154 10.94640 3824 ft 251 kts 277°
2026-02-18 13:33 49.50183 10.89540 5598 ft 260 kts 240°
2026-02-18 13:33 49.49333 10.87081 6536 ft 261 kts 246°
2026-02-18 13:33 49.48578 10.84531 7393 ft 263 kts 248°
2026-02-18 13:34 49.47839 10.81928 8232 ft 267 kts 248°
2026-02-18 13:34 49.46935 10.79401 9046 ft 274 kts 234°
2026-02-18 13:34 49.45509 10.77408 9823 ft 283 kts 213°
2026-02-18 13:34 49.43661 10.76302 10570 ft 291 kts 193°
2026-02-18 13:35 49.41593 10.76100 11017 ft 309 kts 184°
2026-02-18 13:35 49.39364 10.76058 11246 ft 330 kts 183°
2026-02-18 13:35 49.37034 10.76039 11793 ft 339 kts 183°
2026-02-18 13:35 49.34662 10.76022 12474 ft 343 kts 184°
2026-02-18 13:36 49.32262 10.75997 13168 ft 347 kts 184°
2026-02-18 13:36 49.29860 10.75966 13833 ft 351 kts 184°
2026-02-18 13:36 49.27406 10.75929 14428 ft 354 kts 185°
2026-02-18 13:36 49.24920 10.76072 15006 ft 362 kts 176°
2026-02-18 13:37 49.20032 10.78559 16128 ft 383 kts 155°
2026-02-18 13:37 49.17705 10.80593 16684 ft 388 kts 155°
2026-02-18 13:37 49.15346 10.82650 17237 ft 392 kts 155°
2026-02-18 13:38 49.12958 10.84720 17786 ft 397 kts 155°
2026-02-18 13:38 49.10539 10.86808 18329 ft 401 kts 155°
2026-02-18 13:38 49.08136 10.89049 18784 ft 409 kts 148°
2026-02-18 13:38 49.05937 10.91877 19285 ft 417 kts 140°
2026-02-18 13:39 49.03803 10.94906 19783 ft 421 kts 141°
2026-02-18 13:39 49.01646 10.97953 20272 ft 425 kts 141°
2026-02-18 13:39 48.99460 11.01027 20731 ft 429 kts 141°
2026-02-18 13:39 48.97245 11.04130 21183 ft 434 kts 141°
2026-02-18 13:40 48.95041 11.07203 21613 ft 438 kts 141°
2026-02-18 13:40 48.92780 11.10350 22048 ft 442 kts 141°
2026-02-18 13:40 48.90501 11.13522 22499 ft 446 kts 141°
2026-02-18 13:40 48.88206 11.16716 22933 ft 450 kts 141°
2026-02-18 13:41 48.83446 11.22983 23754 ft 453 kts 150°
2026-02-18 13:41 48.80834 11.25676 24130 ft 455 kts 150°
2026-02-18 13:41 48.78200 11.28383 24498 ft 459 kts 150°
2026-02-18 13:42 48.75547 11.31110 24864 ft 462 kts 150°
2026-02-18 13:42 48.72880 11.33847 25191 ft 465 kts 150°
2026-02-18 13:42 48.70195 11.36601 25566 ft 468 kts 150°
2026-02-18 13:42 48.67493 11.39373 25947 ft 471 kts 150°
2026-02-18 13:43 48.64769 11.42167 26282 ft 475 kts 150°
2026-02-18 13:43 48.62029 11.44973 26644 ft 478 kts 150°
2026-02-18 13:43 48.59266 11.47790 26994 ft 481 kts 151°
2026-02-18 13:43 48.56484 11.50619 27342 ft 484 kts 151°
2026-02-18 13:44 48.53682 11.53467 27685 ft 487 kts 150°
2026-02-18 13:44 48.50866 11.56332 28039 ft 490 kts 150°
2026-02-18 13:44 48.47959 11.58980 28333 ft 487 kts 159°
2026-02-18 13:44 48.44869 11.60990 28681 ft 482 kts 168°
2026-02-18 13:45 48.38404 11.63422 29386 ft 480 kts 175°
2026-02-18 13:45 48.35133 11.64524 29735 ft 483 kts 175°
2026-02-18 13:45 48.31844 11.65638 30066 ft 486 kts 175°
2026-02-18 13:46 48.28534 11.66760 30359 ft 489 kts 175°
2026-02-18 13:46 48.25238 11.67881 30608 ft 493 kts 175°
2026-02-18 13:46 48.21895 11.69029 30976 ft 493 kts 175°
2026-02-18 13:46 48.18545 11.70190 31355 ft 494 kts 175°
2026-02-18 13:47 48.15197 11.71350 31740 ft 494 kts 175°
2026-02-18 13:47 48.11840 11.72513 32121 ft 495 kts 175°
2026-02-18 13:47 48.08480 11.73673 32504 ft 495 kts 176°
2026-02-18 13:47 48.05121 11.74827 32881 ft 496 kts 176°
2026-02-18 13:48 48.01755 11.75977 33232 ft 496 kts 176°
2026-02-18 13:48 47.98380 11.77125 33611 ft 496 kts 176°
2026-02-18 13:48 47.95011 11.78269 33988 ft 497 kts 176°
2026-02-18 13:48 47.91635 11.79344 34313 ft 492 kts 181°
2026-02-18 13:49 47.84973 11.79745 34896 ft 473 kts 193°
2026-02-18 13:49 47.78369 11.79349 34959 ft 481 kts 193°
2026-02-18 13:50 47.71589 11.78920 34951 ft 492 kts 193°
2026-02-18 13:50 47.64730 11.78535 34949 ft 493 kts 193°
2026-02-18 13:51 47.57893 11.78184 34946 ft 494 kts 192°
2026-02-18 13:51 47.51011 11.77811 34943 ft 494 kts 193°
2026-02-18 13:52 47.44132 11.77412 34950 ft 495 kts 193°
2026-02-18 13:52 47.37246 11.77025 34928 ft 495 kts 192°
2026-02-18 13:53 47.23478 11.76278 34959 ft 494 kts 192°
2026-02-18 13:54 47.16825 11.75101 34956 ft 473 kts 206°
2026-02-18 13:55 47.07327 11.71261 34985 ft 471 kts 206°
2026-02-18 13:55 47.00930 11.69021 34988 ft 483 kts 198°
2026-02-18 13:56 46.94130 11.68364 34977 ft 489 kts 193°
2026-02-18 13:56 46.87344 11.67815 34992 ft 487 kts 193°
2026-02-18 13:57 46.77188 11.66972 34945 ft 487 kts 193°
2026-02-18 13:57 46.70428 11.66408 34977 ft 487 kts 193°
2026-02-18 13:58 46.63671 11.65840 34987 ft 486 kts 193°
2026-02-18 13:58 46.56920 11.65279 34951 ft 486 kts 193°
2026-02-18 13:59 46.50175 11.64715 34965 ft 485 kts 193°
2026-02-18 13:59 46.43437 11.64157 34961 ft 485 kts 193°
2026-02-18 14:00 46.36712 11.63601 34920 ft 484 kts 193°
2026-02-18 14:00 46.29988 11.63047 34943 ft 484 kts 193°
2026-02-18 14:01 46.19880 11.62273 34938 ft 488 kts 188°
2026-02-18 14:02 46.13023 11.63565 34923 ft 503 kts 176°
2026-02-18 14:02 46.06157 11.65551 34954 ft 503 kts 176°
2026-02-18 14:03 45.99340 11.67521 34941 ft 503 kts 176°
2026-02-18 14:03 45.92475 11.69492 34903 ft 502 kts 176°
2026-02-18 14:04 45.85603 11.71436 34915 ft 502 kts 177°
2026-02-18 14:04 45.78739 11.73383 34935 ft 503 kts 176°
2026-02-18 14:05 45.68451 11.76314 34952 ft 502 kts 176°
2026-02-18 14:05 45.61600 11.78257 34978 ft 502 kts 176°
2026-02-18 14:06 45.54726 11.80189 34952 ft 503 kts 176°
2026-02-18 14:06 45.47850 11.82124 34962 ft 504 kts 176°
2026-02-18 14:07 45.40967 11.84053 34968 ft 504 kts 177°
2026-02-18 14:07 45.34077 11.84848 34947 ft 494 kts 186°
2026-02-18 14:08 45.27210 11.85264 34958 ft 494 kts 186°
2026-02-18 14:08 45.20339 11.85703 34964 ft 494 kts 186°
2026-02-18 14:09 45.10025 11.86356 34947 ft 494 kts 185°
2026-02-18 14:10 45.03154 11.86791 34953 ft 494 kts 185°
2026-02-18 14:10 44.96279 11.87212 34958 ft 494 kts 186°
2026-02-18 14:11 44.89405 11.87623 34944 ft 494 kts 185°
2026-02-18 14:11 44.83701 11.87969 34966 ft 494 kts 185°
2026-02-18 14:12 44.76830 11.88420 34961 ft 495 kts 184°
2026-02-18 14:12 44.68822 11.89589 34951 ft 499 kts 180°
2026-02-18 14:13 44.59627 11.91375 34951 ft 498 kts 180°
2026-02-18 14:13 44.52763 11.92576 34923 ft 496 kts 181°
2026-02-18 14:14 44.45919 11.93678 34959 ft 495 kts 181°
2026-02-18 14:14 44.39084 11.94780 34964 ft 494 kts 181°
2026-02-18 14:15 44.28858 11.96368 34946 ft 491 kts 182°
2026-02-18 14:16 44.18656 11.97408 34958 ft 489 kts 184°
2026-02-18 14:16 44.11861 11.98085 34958 ft 490 kts 184°
2026-02-18 14:17 44.01665 11.99210 34966 ft 490 kts 183°
2026-02-18 14:18 43.94919 11.99970 34947 ft 489 kts 183°
2026-02-18 14:18 43.88137 12.00713 34969 ft 489 kts 183°
2026-02-18 14:19 43.81356 12.01445 34984 ft 489 kts 183°
2026-02-18 14:19 43.74576 12.02170 34964 ft 488 kts 183°
2026-02-18 14:20 43.67805 12.02905 34978 ft 488 kts 183°
2026-02-18 14:20 43.61037 12.03645 34992 ft 488 kts 183°
2026-02-18 14:21 43.50889 12.04762 34997 ft 488 kts 183°
2026-02-18 14:21 43.44112 12.05499 35007 ft 489 kts 183°
2026-02-18 14:22 43.37327 12.06231 34710 ft 490 kts 183°
2026-02-18 14:22 43.33925 12.06598 34231 ft 491 kts 182°
2026-02-18 14:22 43.30473 12.06967 33705 ft 492 kts 182°
2026-02-18 14:23 43.27052 12.07331 33156 ft 494 kts 182°
2026-02-18 14:23 43.23623 12.07701 32619 ft 495 kts 182°
2026-02-18 14:23 43.20227 12.08069 31994 ft 496 kts 181°
2026-02-18 14:23 43.16735 12.08446 31321 ft 498 kts 181°
2026-02-18 14:24 43.13322 12.08812 30700 ft 499 kts 181°
2026-02-18 14:24 43.09858 12.09182 30081 ft 500 kts 181°
2026-02-18 14:24 43.06388 12.09555 29365 ft 501 kts 180°
2026-02-18 14:24 43.02912 12.09930 28655 ft 502 kts 180°
2026-02-18 14:25 42.95933 12.10677 27284 ft 503 kts 180°
2026-02-18 14:25 42.92441 12.11048 26621 ft 504 kts 180°
2026-02-18 14:25 42.88942 12.11422 25985 ft 505 kts 180°
2026-02-18 14:26 42.85443 12.11798 25363 ft 505 kts 180°
2026-02-18 14:26 42.81932 12.12176 24758 ft 506 kts 180°
2026-02-18 14:26 42.78422 12.12551 24116 ft 504 kts 180°
2026-02-18 14:26 42.74941 12.12922 23388 ft 499 kts 180°
2026-02-18 14:27 42.71502 12.13290 22562 ft 493 kts 180°
2026-02-18 14:27 42.68105 12.13657 21765 ft 486 kts 180°
2026-02-18 14:27 42.64753 12.14014 20995 ft 479 kts 180°
2026-02-18 14:27 42.61480 12.14361 19869 ft 464 kts 180°
2026-02-18 14:28 42.58287 12.14696 18609 ft 459 kts 180°
2026-02-18 14:28 42.55126 12.15024 17802 ft 453 kts 180°
2026-02-18 14:28 42.52007 12.15351 16988 ft 446 kts 180°
2026-02-18 14:28 42.48934 12.15672 16293 ft 438 kts 180°
2026-02-18 14:29 42.42996 12.16299 15069 ft 424 kts 180°
2026-02-18 14:29 42.40066 12.16609 14337 ft 421 kts 180°
2026-02-18 14:29 42.37157 12.16918 13589 ft 413 kts 180°
2026-02-18 14:30 42.34362 12.17220 12790 ft 394 kts 179°
2026-02-18 14:30 42.31694 12.17507 12078 ft 376 kts 179°
2026-02-18 14:30 42.29107 12.17777 11577 ft 370 kts 179°
2026-02-18 14:30 42.26562 12.18036 11076 ft 364 kts 179°
2026-02-18 14:31 42.24063 12.18290 10583 ft 356 kts 179°
2026-02-18 14:31 42.21653 12.18540 10084 ft 339 kts 179°
2026-02-18 14:31 42.19357 12.18796 9592 ft 325 kts 176°
2026-02-18 14:31 42.17248 12.19752 9066 ft 319 kts 152°
2026-02-18 14:32 42.15351 12.21195 8542 ft 307 kts 161°
2026-02-18 14:32 42.13323 12.21887 7784 ft 299 kts 180°
2026-02-18 14:32 42.11281 12.21647 6960 ft 294 kts 194°
2026-02-18 14:32 42.09276 12.21115 6132 ft 294 kts 194°
2026-02-18 14:33 42.05320 12.20040 4542 ft 285 kts 191°
2026-02-18 14:33 42.03392 12.19515 3765 ft 281 kts 191°
2026-02-18 14:33 42.01484 12.19216 3199 ft 268 kts 174°
2026-02-18 14:34 41.99761 12.19774 3119 ft 244 kts 164°
2026-02-18 14:34 41.98183 12.20442 2856 ft 233 kts 163°
2026-02-18 14:34 41.96684 12.21078 2506 ft 218 kts 163°
2026-02-18 14:34 41.95292 12.21667 2187 ft 200 kts 164°
2026-02-18 14:35 41.94022 12.22205 1983 ft 184 kts 165°
2026-02-18 14:35 41.92859 12.22697 1818 ft 165 kts 165°
2026-02-18 14:35 41.91832 12.23128 1732 ft 149 kts 165°
2026-02-18 14:35 41.90868 12.23525 1451 ft 141 kts 166°
2026-02-18 14:36 41.89950 12.23908 1179 ft 136 kts 166°
2026-02-18 14:36 41.89056 12.24281 976 ft 135 kts 166°
2026-02-18 14:36 41.88144 12.24664 784 ft 140 kts 165°
2026-02-18 14:36 41.87204 12.25049 622 ft 142 kts 165°
2026-02-18 14:37 41.85409 12.25815 241 ft 130 kts 166°
2026-02-18 14:37 41.84543 12.26179 59 ft 134 kts 167°
2026-02-18 14:37 41.83710 12.26517 18 ft 110 kts 162°
2026-02-18 14:38 41.83077 12.26788 11 ft 83 kts 162°
2026-02-18 14:38 41.82582 12.26994 12 ft 68 kts 163°
2026-02-18 14:38 41.82205 12.27142 10 ft 38 kts 169°
2026-02-18 14:38 41.81986 12.27118 11 ft 31 kts 192°
2026-02-18 14:39 41.81782 12.27057 11 ft 30 kts 191°
2026-02-18 14:39 41.81577 12.27091 12 ft 30 kts 164°
2026-02-18 14:39 41.81371 12.27174 12 ft 31 kts 163°
2026-02-18 14:39 41.81159 12.27262 13 ft 33 kts 161°
2026-02-18 14:40 41.80953 12.27347 12 ft 30 kts 174°
2026-02-18 14:40 41.80745 12.27314 12 ft 29 kts 191°
2026-02-18 14:40 41.80637 12.27159 13 ft 24 kts 248°
2026-02-18 14:40 41.80576 12.26944 13 ft 26 kts 250°
2026-02-18 14:41 41.80448 12.26475 15 ft 28 kts 250°
2026-02-18 14:41 41.80381 12.26233 15 ft 23 kts 249°
2026-02-18 14:41 41.80284 12.26078 14 ft 23 kts 206°
2026-02-18 14:42 41.80133 12.25984 14 ft 25 kts 204°
2026-02-18 14:42 41.79982 12.25891 14 ft 14 kts 205°
2026-02-18 14:42 41.79931 12.25821 14 ft 11 kts 267°
2026-02-18 14:42 41.79964 12.25711 14 ft 14 kts 295°
2026-02-18 14:43 41.79997 12.25601 14 ft 9 kts 266°
2026-02-18 14:43 41.79944 12.25541 14 ft 12 kts 204°
2026-02-18 14:43 41.79862 12.25490 14 ft 14 kts 206°
2026-02-18 14:43 41.79785 12.25444 15 ft 7 kts 188°
2026-02-18 14:44 41.79758 12.25495 14 ft 1 kts 114°
2026-02-18 14:44 41.79757 12.25499 14 ft 0 kts 114°